Location: Edmonton
(53.5500°N, 113.5000°W)
Time: 05:10:38
(UTC-06:00)

Daily predictions for brighter satellites

Satellite Brightness Start Highest point End
(mag) Time Altitude Azimuth Time Altitude Azimuth Time Altitude Azimuth
Meteor 1-23 Rocket 4.2 00:00:17 10° NNW 00:05:54 86° ENE 00:09:26 24° SSE
Cosmos 1821 Rocket 4.0 00:01:40 19° S 00:06:17 73° E 00:12:27 10° NNE
Cosmos 1455 Rocket 4.1 00:04:38 23° SE 00:06:20 31° E 00:10:09 10° NNE
Cosmos 1536 2.9 00:04:39 28° SSE 00:06:30 58° E 00:10:26 10° NNE
ASTEX 1 3.5 00:01:51 10° N 00:06:48 75° W 00:10:36 17° SSW
Cosmos 1300 Rocket 4.1 00:03:17 13° SSW 00:07:12 59° WNW 00:11:37 10° N
Cosmos 1605 Rocket 4.5 00:03:15 22° SSE 00:07:13 48° E 00:13:19 10° NNE
Iridium 4 Rocket 3.8 00:02:02 10° N 00:07:57 88° E 00:11:58 22° S
CZ-4C R/B 4.1 00:08:34 24° ESE 00:10:16 38° ENE 00:13:43 10° N
Meteor 2-21 4.5 00:08:56 18° S 00:13:42 86° E 00:19:58 10° NNE
Cosmos 44 4.4 00:08:45 10° NW 00:13:54 45° NNE 00:18:47 10° ESE
Okean 1 Rocket 3.6 00:10:38 14° SSW 00:14:21 58° WNW 00:18:46 10° N
Cosmos 1934 Rocket 3.9 00:11:05 22° S 00:15:09 71° E 00:21:13 10° NNE
ALOS 2 3.3 00:13:07 23° SE 00:15:28 45° ENE 00:19:40 10° N
Cosmos 2123 Rocket 4.0 00:11:18 10° N 00:17:36 88° W 00:21:40 23° S
Cosmos 1809 Rocket 4.5 00:13:45 18° S 00:18:35 88° W 00:24:50 10° NNE
Cosmos 2285 Rocket 4.2 00:14:43 21° S 00:18:53 56° ESE 00:25:09 10° NNE
Cosmos 1943 Rocket 3.4 00:22:13 21° SE 00:23:58 25° ESE 00:28:27 10° NE
Cosmos 2297 Rocket 4.4 00:20:32 10° NNW 00:24:49 21° NNE 00:29:05 10° ENE
SL-8 R/B 4.4 00:20:41 10° W 00:25:01 34° SSW 00:26:15 29° S
Cosmos 1975 4.4 00:24:52 20° ESE 00:26:03 23° E 00:29:17 10° NE
CZ-4B R/B 2.2 00:30:52 30° ESE 00:31:46 38° ENE 00:34:47 10° N
Meteor 1-5 Rocket 4.3 00:31:24 28° SSE 00:34:08 58° E 00:39:21 10° NNE
Landsat 5 4.1 00:32:20 26° SE 00:34:23 46° ENE 00:38:21 10° N
Cosmos 1544 Rocket 3.5 00:34:12 32° S 00:36:09 75° E 00:40:30 10° NNE
Cosmos 968 Rocket 3.7 00:34:29 10° NNW 00:39:45 66° ENE 00:42:45 25° SE
H-2A R/B 3.5 00:38:08 10° NNE 00:42:20 35° E 00:43:50 28° SE
MOS 1-B Rocket 4.5 00:39:26 23° SE 00:43:37 67° ENE 00:50:57 10° NNW
Cosmos 1689 Rocket 2.5 00:47:25 43° SE 00:48:08 57° ENE 00:51:18 10° N
Genesis I 3.2 00:47:01 17° SW 00:50:06 84° NW 00:54:09 10° NE
ISS -3.4 00:48:18 10° W 00:51:32 62° S 00:51:55 56° SSE
BREEZE-M DEB (TANK) 3.9 00:38:55 10° W 00:55:49 67° S 01:00:12 10° ESE
GP-B 3.7 00:55:12 10° N 00:59:31 47° E 01:01:14 31° SE
ATLAS 2AS CENTAUR R/B 3.1 00:52:41 10° NW 01:00:44 65° SW 01:05:37 25° SSE
Terra 4.2 00:58:54 10° WSW 01:01:27 14° W 01:04:01 10° NW
BREEZE-M DEB (TANK) 3.3 01:01:13 10° W 01:04:06 39° S 01:12:00 10° ESE
Cosmos 2263 4.1 01:04:20 26° SSW 01:07:33 74° ESE 01:13:14 10° NE
Cosmos 1315 Rocket 3.5 01:06:41 25° SW 01:08:38 48° WNW 01:12:29 10° N
USA 234 3.2 01:04:52 10° ENE 01:11:22 62° SE 01:17:50 10° SW
Lacrosse 5 rocket 0.9 01:08:42 10° WSW 01:12:29 90° SSE 01:16:11 10° ENE
Cosmos 1825 Rocket 4.1 01:09:48 10° N 01:14:11 53° ENE 01:16:09 30° SE
CZ-2C R/B 3.5 01:12:07 23° SE 01:14:53 49° ENE 01:19:31 10° N
Cosmos 1346 Rocket 3.5 01:16:24 10° NNW 01:20:08 42° W 01:21:15 33° SW
Cosmos 1633 4.4 01:18:20 16° WSW 01:20:32 26° WNW 01:23:44 10° N
Cosmos 1992 Rocket 4.0 01:22:28 27° SSW 01:25:24 84° WNW 01:30:39 10° NNE
Cosmos 1818 3.6 01:24:58 29° SSW 01:27:45 66° SE 01:33:12 10° NE
Cosmos 1758 Rocket 4.3 01:24:18 10° N 01:28:41 48° ENE 01:30:48 27° SE
Cosmos 44 Rocket 3.9 01:23:56 10° NW 01:28:49 43° WSW 01:30:23 33° SSW
Cosmos 1777 Rocket 3.9 01:24:35 10° NNW 01:29:50 85° WSW 01:32:21 32° SSE
Cosmos 1340 3.8 01:26:45 10° N 01:30:19 36° ENE 01:31:56 24° ESE
Cosmos 1602 Rocket 4.3 01:26:46 10° NNW 01:31:01 44° W 01:32:41 30° SW
Cosmos 2100 Rocket 4.0 01:29:52 29° S 01:33:24 85° E 01:39:49 10° NNE
Meteor 1-12 Rocket 4.2 01:30:45 29° SSW 01:33:44 85° WNW 01:39:26 10° NNE
Cosmos 1626 Rocket 4.4 01:30:36 10° NNW 01:34:48 41° W 01:36:29 29° SW
CZ-2C R/B 2.9 01:29:57 10° NNE 01:35:05 53° E 01:37:25 31° SSE
CRYOSAT 2 4.4 01:30:56 10° N 01:35:52 81° W 01:38:03 34° SSW
Lacrosse 5 1.8 01:30:58 10° WSW 01:36:05 88° NNW 01:41:14 10° ENE
Cosmos 2369 Rocket 2.7 01:34:53 14° SW 01:39:42 57° NW 01:45:15 10° NNE
Cosmos 1743 3.3 01:38:42 36° SE 01:39:43 45° E 01:43:26 10° NNE
Cosmos 2082 4.4 01:34:53 10° NNW 01:40:26 52° NE 01:45:34 12° SE
Cosmos 1459 Rocket 3.9 01:40:22 29° S 01:43:40 88° W 01:49:46 10° N
Cosmos 1455 Rocket 4.2 01:41:45 20° WSW 01:44:07 35° WNW 01:48:08 10° N
Meteor 1-21 4.2 01:39:23 10° NNW 01:45:02 81° ENE 01:48:03 29° SSE
SL-24 DEB 4.4 01:40:16 10° N 01:45:04 67° E 01:47:06 34° SSE
Helios 1A Rocket 2.9 01:43:35 10° NNE 01:47:46 75° ESE 01:49:08 41° S
PSLV R/B 4.3 01:46:19 31° SE 01:48:09 60° ENE 01:52:17 10° N
Cosmos 2016 Rocket 3.9 01:45:42 30° S 01:48:56 77° E 01:55:03 10° NNE
Cosmos 2227 Rocket 2.6 01:43:26 10° NNW 01:49:05 61° NE 01:53:53 14° SE
Cosmos 2219 3.5 01:43:46 10° NW 01:49:14 52° WSW 01:51:36 31° S
Cosmos 1066 Rocket 4.4 01:46:31 10° NNW 01:51:46 57° W 01:54:11 31° SSW
ALOS 2 4.0 01:50:31 22° SW 01:52:00 26° W 01:55:43 10° NW
Cosmos 1656 Rocket 3.9 01:51:24 31° S 01:53:52 55° ESE 01:59:21 10° NE
Cosmos 44 3.6 01:50:13 10° NW 01:55:20 52° SW 01:57:10 34° S
Cosmos 2061 Rocket 4.1 01:51:59 27° SSW 01:55:41 77° WNW 02:02:07 10° N
Cosmos 2228 4.4 01:55:22 22° SE 01:57:07 29° E 02:00:50 10° NNE
SeaSat 1 2.9 01:54:46 15° SE 01:58:46 62° NE 02:03:40 10° NNW
Cosmos 1842 3.4 01:55:42 10° N 01:59:42 68° ENE 02:01:09 36° SSE
Cosmos 1666 3.7 02:00:46 29° SE 02:01:53 36° E 02:05:23 10° NNE
Cosmos 1975 3.7 02:00:42 28° SW 02:02:21 42° WNW 02:06:16 10° N
Cosmos 1802 Rocket 4.0 01:59:07 28° SSW 02:02:38 78° WNW 02:09:00 10° N
CZ-4B R/B 3.3 02:04:37 16° W 02:04:49 17° W 02:06:57 10° NW
Cosmos 1943 Rocket 2.3 02:03:42 24° SW 02:07:13 73° NW 02:12:53 10° NNE
Cosmos 2173 Rocket 4.2 02:03:34 26° SSW 02:07:18 66° WNW 02:13:40 10° N
Cosmos 1500 3.6 02:08:34 35° SW 02:09:49 52° WNW 02:13:33 10° N
Cosmos 2297 Rocket 2.6 02:04:22 10° NNW 02:10:01 63° NE 02:15:22 11° SE
H-2A R/B 3.8 02:13:43 10° N 02:17:55 37° WNW 02:20:28 20° WSW
Cosmos 1606 Rocket 3.4 02:18:16 37° SSW 02:19:55 87° W 02:24:18 10° N
Cosmos 405 Rocket 4.1 02:19:39 10° N 02:23:28 36° ENE 02:26:15 16° SE
Cosmos 1816 Rocket 4.5 02:17:14 10° NNW 02:23:31 79° W 02:27:14 27° S
NOSS 3-4 (A) 3.7 02:17:20 10° NW 02:24:11 89° NE 02:31:28 10° SE
NOSS 3-4 (C) 3.8 02:17:25 10° NW 02:24:19 89° NE 02:31:38 10° SE
Cosmos 1725 Rocket 3.9 02:23:22 28° SSW 02:26:52 86° W 02:33:06 10° N
Cosmos 2150 Rocket 4.1 02:22:52 10° NNW 02:28:09 73° ENE 02:32:07 17° SE
SL-08 R/B 4.4 02:24:13 11° SE 02:28:18 39° ENE 02:32:37 10° N
Cosmos 1898 Rocket 3.6 02:24:42 10° NNW 02:30:05 77° ENE 02:34:11 17° SSE
Cosmos 972 Rocket 3.9 02:27:34 10° NNW 02:32:30 78° WSW 02:35:25 26° SSE
ATLAS CENTAUR R/B 3.5 02:34:29 17° SE 02:36:22 21° ESE 02:40:02 10° ENE
NOSS 3-3 (A) 4.1 02:32:38 26° SSW 02:36:29 70° SE 02:43:22 10° NE
NOSS 3-3 (C) 4.1 02:32:44 26° SSW 02:36:34 70° SE 02:43:27 10° NE
Tsikada Rocket 4.4 02:31:22 10° NNW 02:37:28 53° W 02:40:58 26° SSW
Cosmos 1937 Rocket 3.8 02:32:56 10° NNW 02:38:07 67° ENE 02:42:49 13° SE
Cosmos 1570 Rocket 4.0 02:37:44 29° SSW 02:40:31 80° ESE 02:45:53 10° NNE
Cosmos 2058 Rocket 3.1 02:43:37 32° SSW 02:45:36 75° WNW 02:50:05 10° N
Cosmos 1461 4.3 02:45:17 10° NW 02:49:22 41° NE 02:53:16 10° ESE
ATLAS 2AS CENTAUR R/B 4.4 02:45:04 10° WNW 02:50:22 19° WSW 02:53:00 16° SW
Lacrosse 5 rocket 2.0 02:48:19 10° W 02:51:57 48° N 02:55:30 10° ENE
GENESIS II 4.3 02:52:44 34° SSW 02:54:24 68° SE 02:58:33 10° NE
USA 234 3.4 02:48:00 10° ENE 02:54:33 76° NNW 03:01:05 10° W
CZ-2C R/B 4.1 02:53:12 22° SW 02:55:01 28° W 02:59:10 10° NW
Cosmos 1726 Rocket 4.1 02:53:18 27° SW 02:55:16 48° WNW 02:59:29 10° N
PSLV R/B 3.8 02:52:15 10° NNE 02:56:43 67° ESE 02:59:09 27° S
Cosmos 1707 3.0 03:01:24 10° N 03:05:20 70° ENE 03:07:51 21° SSE
Cosmos 1340 4.1 03:02:48 10° NW 03:05:55 24° W 03:06:48 22° WSW
OPS 8737 4.4 03:08:00 39° SSW 03:08:55 59° SE 03:12:15 10° NE
SL-16 R/B 3.6 03:03:10 10° SE 03:08:57 44° ENE 03:14:46 10° N
CZ-2C R/B 3.9 03:10:38 10° N 03:15:11 31° WNW 03:18:57 14° WSW
GEOS 3 Rocket 4.2 03:10:53 10° ESE 03:16:00 61° NE 03:21:05 10° NW
Okean 3 Rocket 3.6 03:13:59 10° N 03:18:26 84° E 03:21:38 18° SSE
Cosmos 972 4.4 03:13:49 10° NNW 03:18:38 61° WSW 03:22:00 20° S
Lacrosse 5 2.5 03:14:22 10° W 03:19:24 58° N 03:24:27 10° ENE
Cosmos 1697 Rocket 3.9 03:19:13 14° SSE 03:23:20 34° ESE 03:28:23 10° NE
Resurs 1-4 Rocket 4.1 03:19:52 10° NE 03:23:56 22° E 03:27:58 10° SE
Cosmos 2082 4.3 03:19:16 10° NW 03:24:25 37° WSW 03:27:23 22° SSW
Cosmos 2369 Rocket 4.4 03:20:53 10° WNW 03:24:58 20° NNW 03:29:02 10° NNE
Cosmos 1076 Rocket 4.3 03:20:44 10° N 03:24:59 51° ENE 03:29:11 10° SSE
CBERS-1 4.5 03:21:53 10° NNE 03:26:59 57° E 03:30:53 17° S
Cosmos 1814 Rocket 4.5 03:23:29 19° S 03:27:08 55° ESE 03:32:23 10° NNE
AQUA 4.3 03:22:45 10° NNE 03:27:27 55° E 03:30:58 17° S
Cosmos 2233 Rocket 4.4 03:25:24 20° SW 03:29:31 52° WNW 03:35:32 10° N
Cosmos 1464 Rocket 4.0 03:26:07 19° S 03:30:53 87° ESE 03:37:18 10° N
Cosmos 2227 Rocket 3.1 03:27:55 10° NW 03:32:51 31° WSW 03:35:39 20° SSW
Cosmos 1980 Rocket 3.8 03:28:20 10° SSE 03:32:56 26° ESE 03:37:34 10° NE
Cosmos 2228 3.9 03:32:14 20° SW 03:34:37 37° WNW 03:38:37 10° N
SeaSat 1 3.4 03:34:34 21° SSW 03:36:37 28° WSW 03:40:53 10° NW
Cosmos 1092 Rocket 4.4 03:30:59 10° N 03:37:15 66° ENE 03:43:33 10° SSE
Cosmos 1666 4.3 03:35:46 16° WSW 03:37:42 24° WNW 03:40:50 10° NNW
Cosmos 990 Rocket 4.1 03:33:26 10° NNW 03:38:38 61° WSW 03:43:25 12° S
Gblst 52 Del rocket 4.3 03:34:47 10° W 03:41:27 74° S 03:47:18 10° ESE
NPP 3.7 03:40:27 10° NNE 03:45:54 88° ESE 03:50:08 17° SSW
NOSS 2-1 (D) 3.7 03:45:51 21° SSW 03:48:27 63° SE 03:53:18 10° NE
Cosmos 468 Rocket 4.0 03:46:04 19° SSW 03:49:50 88° ESE 03:55:01 10° NNE
NOSS 2-1 (C) 3.7 03:47:15 21° SSW 03:49:53 63° SE 03:54:45 10° NE
USA 161 1.5 03:47:55 15° SSE 03:50:05 75° ENE 03:52:48 10° N
Cosmos 1378 3.1 03:46:18 10° N 03:50:07 89° ENE 03:53:33 12° S
Cosmos 1943 Rocket 4.1 03:47:33 10° W 03:51:58 23° NNW 03:56:26 10° NNE
Cosmos 2297 Rocket 3.1 03:48:53 10° NW 03:53:44 30° WSW 03:57:07 17° SSW
Cosmos 372 Rocket 4.5 03:51:15 10° NNW 03:56:21 61° ENE 04:01:23 10° SE
Cosmos 1437 3.8 03:54:23 10° N 03:57:38 46° ENE 04:00:52 10° SSE
RESURS DK-1 2.6 03:53:35 10° NNW 03:57:45 74° NE 04:01:53 10° SE
Cosmos 1513 Rocket 4.5 03:53:16 16° SSW 03:58:14 75° WNW 04:04:21 10° N
Cosmos 405 Rocket 4.0 03:55:59 10° NNW 03:59:26 27° W 04:01:28 18° SW
Cosmos 2278 3.9 03:56:15 16° SW 04:00:45 66° NW 04:06:27 10° NNE
Cosmos-2242 4.2 03:57:29 10° SSE 04:01:29 39° E 04:05:29 10° NNE
Meteor 2-5 Rocket 4.5 03:56:17 10° NNW 04:01:40 38° W 04:06:03 15° SSW
UNK 3.9 03:57:24 10° SSE 04:02:05 78° ENE 04:06:47 10° NNW
Cosmos 2369 3.9 03:58:43 16° SW 04:03:15 70° NW 04:08:57 10° NNE
NOSS 2-1 (E) 3.7 04:01:56 18° SW 04:05:00 76° SE 04:10:07 10° NE
Okean O Rocket 4.1 04:02:08 10° NE 04:05:05 17° E 04:08:01 10° SE
ERS-2 2.3 04:01:47 10° NNE 04:05:33 76° ESE 04:08:37 15° S
Cosmos 2084 4.4 04:02:00 10° NW 04:05:51 48° NNE 04:09:51 10° ESE
SL-08 R/B 4.1 04:03:12 17° SSW 04:06:14 33° W 04:10:27 10° NNW
Cosmos 1408 Rocket 3.5 04:02:15 10° NNW 04:06:39 72° W 04:11:02 10° S
Cosmos 1766 Rocket 3.6 04:07:51 10° NNW 04:12:15 68° W 04:16:39 10° S
ATLAS CENTAUR R/B 1.8 04:10:48 15° SW 04:14:59 89° SE 04:19:56 10° NE
Cosmos 1125 Rocket 3.5 04:13:08 10° NNW 04:18:18 64° WSW 04:23:26 10° S
Geosat 4.2 04:14:19 10° NE 04:19:23 69° ESE 04:24:03 12° SSW
Cosmos 841 Rocket 3.7 04:14:44 12° SSW 04:19:34 74° ESE 04:24:51 10° NNE
Cosmos 1766 3.2 04:17:23 13° SSW 04:20:50 77° W 04:24:48 10° N
SL-16 R/B 4.1 04:16:41 10° SSE 04:21:09 25° ESE 04:25:38 10° NE
CBERS 1 LM4 rocket 4.4 04:17:50 10° NNE 04:22:36 72° WNW 04:27:08 12° SSW
Cosmos 1763 Rocket 3.5 04:18:52 13° SSW 04:23:37 86° ESE 04:28:48 10° NNE
Cosmos 2263 Rocket 3.0 04:18:11 10° NNW 04:23:43 57° NE 04:29:11 10° SE
Cosmos 1461 3.2 04:24:37 10° NW 04:28:36 41° SW 04:32:24 10° SSE
Nadezhda 4 Rocket 4.4 04:24:27 10° NNW 04:30:19 46° W 04:36:12 10° SSW
UNKNOWN OBJECT B 3.8 04:27:17 10° NNE 04:31:05 45° E 04:34:46 10° S
Cosmos 1441 Rocket 4.0 04:27:47 10° NNW 04:31:28 36° W 04:35:10 10° SSW
Lacrosse 5 rocket 1.4 04:27:49 10° WNW 04:31:29 67° NNE 04:35:08 10° ESE
IRS-1C 4.4 04:26:16 10° N 04:31:32 60° WNW 04:36:39 11° SW
Cosmos 1656 3.8 04:26:45 12° SW 04:31:59 72° NW 04:37:38 10° NNE
CZ-2D R/B 2.5 04:26:55 10° NNE 04:32:25 69° ESE 04:37:48 10° S
Cosmos 2034 Rocket 4.4 04:28:10 12° SW 04:33:47 49° WNW 04:39:47 10° N
USA 234 3.7 04:30:52 10° E 04:37:23 68° N 04:43:53 10° WNW
BREEZE-M DEB (TANK) 4.3 04:35:27 10° SSW 04:39:05 24° SE 04:42:41 10° E
ARIANE 5 R/B 2.6 04:34:09 10° NNE 04:39:19 86° WNW 04:44:30 10° SSW
Cosmos 1544 4.0 04:36:01 10° S 04:39:32 48° E 04:43:04 10° NNE
Cosmos 1842 Rocket 4.5 04:36:30 10° S 04:40:50 50° E 04:45:12 10° NNE
Cosmos 540 Rocket 4.2 04:39:49 10° S 04:44:49 52° ESE 04:49:51 10° NNE
EO 1 Del DPAF 3.6 04:44:21 10° S 04:48:05 46° W 04:51:52 10° NNW
Cosmos 1805 3.2 04:44:22 10° SSW 04:48:17 85° WNW 04:52:14 10° N
Cosmos 1655 Rocket 4.1 04:42:36 10° NNW 04:49:02 78° W 04:55:26 10° S
SL-16 R/B 2.9 04:46:46 10° S 04:52:38 45° W 04:58:32 10° NNW
In-Cosmos 22 4.5 04:48:32 10° NNW 04:53:32 44° W 04:58:32 10° SSW
GEOS 3 Rocket 4.0 04:49:22 10° SSE 04:54:15 40° SW 04:59:07 10° NW
Cosmos 2151 3.5 04:50:20 10° N 04:54:40 67° ENE 04:58:57 10° SSE
Cosmos 1328 4.5 04:50:52 10° N 04:54:54 60° ENE 04:58:54 10° SSE
ADEOS 4.1 04:51:18 10° N 04:56:18 46° WNW 05:01:16 10° SW
Cosmos 1758 3.4 04:53:46 10° SSW 04:57:45 64° WNW 05:01:45 10° N
Cosmos 1953 2.5 04:56:45 10° SSW 05:00:46 59° WNW 05:04:49 10° N
Cosmos 2026 Rocket 4.1 04:54:49 10° NNW 05:01:05 62° W 05:07:14 10° S
Lacrosse 5 2.1 04:57:39 10° WNW 05:02:47 79° NNE 05:07:53 10° ESE
Resurs 1-4 Rocket 2.2 04:59:03 10° NNE 05:04:20 71° WNW 05:09:33 10° SSW
Cosmos 1674 2.7 05:01:42 10° NNW 05:05:27 62° W 05:09:09 10° S
Cosmos 1697 Rocket 3.1 05:01:32 10° SW 05:07:06 56° NW 05:12:42 10° NNE
